Location: ???????????
(54.5822°N, 39.1075°E)
Time: 03:48:58
(UTC+00:00)

Cosmos 2333 Rocket - Pass Details

Date: 19 May 2025
Orbit: 840 x 862 km, 70.8° (Epoch: 19 June)

Event Time Altitude Azimuth Distance (km) Brightness Sun altitude
Rises 22:05:51 0° 321° (NW) 3,441 6.0 -14.8°
Reaches altitude 10° 22:08:42 10° 309° (NW) 2,496 5.0 -14.7°
Maximum altitude 22:13:17 26° 256° (WSW) 1,639 3.5 -14.6°
Enters shadow 22:15:53 18° 218° (SW) 1,949 3.6 -14.5°
